Retour au catalogue

DISKSAT C

ActifScienceVLEO
NORAD 67219·PAYLOAD·🇺🇸 United States

Lancé Dec 18, 2025 depuis Wallops Flight Facility

Loading…

Prochains Passages (prochaines 24 heures)

TLE

FraisSource: Space-Track

Époque: Sep 14, 2026, 06:21 UTC

1 67219U 25305A   26257.26470992  .00006168  00000-0  37708-3 0  9990
2 67219  45.0029 329.3460 0007599 309.6579  50.3627 15.11059637 40794

Suivez DISKSAT C en temps réel avec AllMySat

Download on the App Store